www.pogodaiklimat.ru
Время
и дата
19:54 05.02
20:54 05.02
21:54 05.02
22:54 05.02
23:54 05.02
00:54 06.02
01:54 06.02
02:54 06.02
03:54 06.02
04:54 06.02
05:54 06.02
06:54 06.02
07:54 06.02
08:54 06.02
09:54 06.02
10:54 06.02
11:54 06.02
12:54 06.02
13:54 06.02
14:54 06.02
15:54 06.02
16:54 06.02
17:54 06.02
18:54 06.02
19:54 06.02
20:54 06.02
21:54 06.02
22:54 06.02
23:54 06.02
00:54 07.02
01:54 07.02
02:54 07.02
03:54 07.02
04:54 07.02
05:54 07.02
06:54 07.02
07:54 07.02
08:54 07.02
09:54 07.02
10:54 07.02
11:54 07.02
12:54 07.02
13:54 07.02
14:54 07.02
15:54 07.02
16:54 07.02
17:54 07.02
18:54 07.02
Ветер
(напр.,м/с)
Видим. Явления Облачность Т
(С)
Тd
(С)
f
(%)
Тe
(С)
Тes
(С)
Комфортность P
(гПа)
Po
(гПа)
Тmin
(С)
Tmax
(С)
R
(мм)
R24
(мм)
S
(см)
З 13 16 км 10/0 2100 m
[Ac]
-2.8 -5.6 81 -13 -13 1015.4 788.2
З 12 16 км 2/0 2550 m
[Ac]
-3.9 -5.6 88 -14 -14 1016.1 788.5
З 11 16 км ясно -3.9 -6.1 85 -14 -14 1014.0 788.0
З 10 16 км ясно -5.0 -6.7 88 -15 -15 1013.8 788.0 -5.0 -1.7
З 11 16 км ясно -5.0 -7.2 85 -15 -15 1013.8 787.7
З 8 16 км ясно -6.1 -7.8 88 -15 -15 1014.0 787.7
З 9 16 км ясно -6.7 -8.3 88 -16 -16 1014.0 787.7
З 10 16 км ясно -6.7 -8.3 88 -17 -17 1014.5 788.2
З 12 16 км ясно -6.7 -8.3 88 -18 -18 1014.9 788.2
ЮЗ 9
{14}
16 км 5/2 1380 m
[Ac]
-6.7 -8.3 88 -16 -16 1015.5 788.5 -6.7 -4.4
ЮЗ 9 16 км 5/5 1500 м -6.1 -8.3 84 -16 -16 1016.0 788.8
ЮЗ 8
{13}
16 км 5/5 540 м -6.1 -8.3 84 -15 -15 1016.6 789.3
ЮЗ 9 16 км 2/2 1440 м -6.1 -8.3 84 -16 -16 1017.7 789.8
З 12
{15}
16 км 2/0 3600 m
[Ac]
-5.6 -8.3 81 -16 -16 1018.0 790.1
З 11 16 км 8/8 1470 м -3.9 -7.2 78 -13 -13 1018.6 790.6
З 11 16 км 5/2 1230 m
[Ac]
-2.8 -6.7 74 -12 -12 1019.5 791.4 -6.7 -2.8
З 9 16 км 8/5 1650 m
[Ac]
-2.2 -6.7 71 -10 -10 1020.0 791.9
З 8 16 км 8/8 1800 м -2.2 -6.1 75 -10 -10 1020.5 792.2
З 8 16 км ясно -2.2 -6.1 75 -10 -9 1020.8 792.2
З 8 16 км ясно -1.7 -5.6 75 -9 -9 1021.4 792.7
З 6 16 км ясно -2.2 -6.7 71 -9 -8 1022.5 793.3
З 7 16 км 8/8 1800 м -2.8 -5.6 81 -11 -10 1023.2 793.8 -2.8 -1.7
З 7 16 км ясно -4.4 -6.7 84 -13 -13 1024.1 794.3
ЮЗ 6 16 км ясно -5.6 -7.2 88 -14 -14 1025.0 794.8
ЮЗ 7 16 км ясно -6.1 -7.8 88 -15 -15 1025.9 795.1
ЮЗ 6 16 км ясно -6.7 -8.9 84 -15 -15 1026.4 795.6
ЮЗ 7 16 км ясно -7.2 -8.9 88 -16 -16 1026.6 795.9
ЮЗ 8 16 км ясно -7.2 -9.4 84 -16 -16 1026.6 796.2 -7.2 -2.8
ЮЗ 8 16 км ясно -8.3 -10.0 88 -18 -18 1027.1 796.4
ЮЗ 9 16 км ясно -7.8 -9.4 88 -18 -18 1027.2 796.7
З 9 16 км ясно -8.3 -9.4 92 -18 -18 1027.4 796.7
ЮЗ 7 16 км ясно -7.8 -9.4 88 -17 -17 1027.2 797.0
ЮЗ 8 16 км ясно -7.8 -8.9 92 -17 -17 1027.3 796.7
ЮЗ 9 16 км ясно -7.8 -8.9 92 -18 -18 1027.5 796.7 -8.3 -7.2
ЮЗ 10 16 км ясно -7.8 -8.9 92 -18 -18 1028.0 796.7
ЮЗ 10 16 км ясно -7.8 -8.9 92 -18 -18 1029.1 797.2
ЮЗ 10
{13}
16 км ясно -6.7 -8.3 88 -17 -17 1029.2 797.7
З 10 16 км ясно -5.6 -7.8 84 -15 -15 1029.7 798.0
З 12
{15}
16 км ясно -3.9 -6.7 81 -14 -14 1029.4 798.0
З 12 16 км ясно -2.8 -6.7 74 -12 -12 1029.7 798.5 -7.8 -2.8
З 11 16 км ясно -2.2 -6.1 75 -11 -11 1029.5 798.3
З 11 16 км ясно -1.7 -6.1 72 -11 -10 1028.7 798.0
ЮЗ 11 16 км ясно -1.7 -5.6 75 -11 -10 1028.4 797.5
З 10 16 км ясно -1.7 -5.6 75 -10 -10 1028.1 797.5
З 8 16 км ясно -2.2 -5.6 77 -10 -10 1028.6 797.7
З 8 16 км ясно -2.8 -6.1 78 -11 -11 1028.5 797.5 -2.8 -1.7
З 8 16 км ясно -3.9 -7.2 78 -12 -12 1028.8 797.5
ЮЗ 7 16 км ясно -4.4 -7.2 81 -13 -13 1029.3 797.7
Местоположение метеостанции Rock Springs-Sweetwater County Airport: широта 41.5944 долгота -109.0528 высота над уровнем моря 2055 м.
В архиве по умолчанию представлена погода в Рок-Спрингсе за последние 1-2 суток. Обновление информации о фактической погоде в базе происходит ежечасно! Архивные данные за месяц целиком и за предыдущие месяцы Вы можете получить, выбрав интересующий диапазон дат из раскрывающегося списка и нажав кнопку "Ввод!".
Внимание! Архив погоды МЕТАР в базе сайта по станциям, не включенным в климатический монитор, хранится не более 60 дней. Нет смысла пытаться выбрать более раннюю дату.
*Определитесь, кто Вы:
Внимание! Время в таблицах - местное (без учета летнего времени). Для получения всемирного времени необходимо вычесть поправку, которая равна -7 ч.
Смотрите также архив погоды в соседних городах и на ближайших метеорологических станциях:
Партнеры нашего сайта:      
Пояснения к столбцам:
  • Ветер - указаны скорость ветра в м/с - средняя за 10 мин, порывы в срок и между сроками (в фигурных скобках) и направление, откуда дует ветер: С - северный,
  • СВ - северо-восточный, В - восточный, ЮВ - юго-восточный, Ю - южный, ЮЗ - юго-западный, З - западный, СЗ - северо-западный.
  • Видимость - горизонтальная дальность видимости в метрах или километрах. При видимости от 1 до 10 км при отсутствии осадков обычно наблюдается дымка, при ухудшении видимости до 1 км и менее - туман. В сухую погоду видимость может ухудшаться дымом, пылью или мглою.
  • Явления - указаны атмосферные явления, наблюдавшиеся в срок или в последний час перед сроком; фигурными скобками обозначены явления, наблюдавшиеся между сроками (за 1-3 часа до срока); квадратными скобками обозначены град или гололедные отложения с указанием их диаметра в мм.
  • Облачность - указаны через наклонную черту общая и нижняя облачность в баллах и высота нижней границы облаков в метрах; квадратными скобками обозначены формы облаков: Ci - перистые, Cs - перисто-слоистые, Cc - перисто-кучевые, Ac - высококучевые, As - высокослоистые, Sc - слоисто-кучевые, Ns - слоисто-дождевые, Cu - кучевые, Cb - кучево-дождевые. Подробнее классификацию облаков см. в Атласе облаков (PDF).
  • T - Температура воздуха - температура, измеренная на высоте 2 м над землей.
  • Td - Температура точки росы - температура, при понижении до которой содержащийся в воздухе водяной пар достигнет насыщения.
  • f - Относительная влажность воздуха - влажноcть воздуха, измеренная на высоте 2 м над землей.
  • Te - Эффективная температура - температура, которую ощущает одетый по сезону человек в тени. Характеристика душности погоды. При расчете учитывается влияние влажности воздуха и скорости ветра на теплоощущения человека.
  • Tes - Эффективная температура на солнце - температура, которую ощущает человек, с поправкой на солнечный нагрев. Характеристика знойности погоды. Зависит от высоты солнца над горизонтом, облачности и скорости ветра. Ночью, в пасмурную погоду, а также при ветре 12 м/с и более поправка равна нулю.
  • P - Атмосферное давление - приведенное к уровню моря атмосферное давление.
  • Po - Атмосферное давление - измеренное на уровне метеостанции атмосферное давление.
  • Tmin - Минимальная температура - минимум температуры воздуха на высоте 2 м над землей.
  • Tmax - Максимальная температура - максимум температуры воздуха на высоте 2 м над землей.
  • R - Количество осадков - Количество выпавших осадков за период времени, мм. При наведении курсора мыши на число - период времени, за который выпало указанное количество осадков.
  • R24 - Количество осадков - Количество выпавших осадков за 24 часа, мм.
  • S - Снежный покров - Высота снежного покрова, см. При наведении курсора мыши на число - состояние снежного покрова и степень покрытия местности в баллах.